World > North America > United States > Utah

Levan, Utah Regional Weather

Lat: 39.56N, Lon: 111.86W
Wx Zone: UTZ004Web Search

Pass this page to a friend. Tell them to point their camera at the QR Code near the bottom of this page.

Feedback


°F Click to change Levan hourly weather to Imperial units.Click to change Levan hourly weather to Metric units. °C
Levan Weather Map
UTC Time: 4/15/2021, 04:18
Your Time:

Levan, UT Regional Weather

Expires:202104150500;;571702
ASUS45 KSLC 150410
RWRUT 

UTAH REGIONAL WEATHER ROUNDUP
NATIONAL WEATHER SERVICE SALT LAKE CITY UT
1000 PM MDT WED APR 14 2021


UTZ001>011-023>025-150500-

NORTHERN UTAH
  
CITY           SKY/WX    TMP DP  RH WIND       PRES   REMARKS
BRIGHAM CITY   MOCLDY    40  29  65 SW5       29.91R                  
HILL AFB       CLOUDY    38  33  81 E16       29.90R WCI  29          
LOGAN          MOCLDY    40  25  55 E15G25    29.91R WCI  32          
OGDEN          CLOUDY    41  36  82 CALM      29.90R                  
SALT LAKE CITY CLOUDY    43  37  79 W5        29.90R                  
TOOELE VALLEY  CLOUDY    39  39 100 SW3       29.92R                  
WENDOVER       CLOUDY    42  31  64 CALM      29.94R                  
HEBER CITY     CLOUDY    34  32  93 NE3       29.89R                  
WEST JORDAN    CLOUDY    39  39 100 CALM      29.91S                  

$$


SKY/WX - Weather  TMP - Temperature  DP - Dew Point  RH - Relative Humidity
WIND - Wind Direction/Speed PRES - Barometric Pressure VSB - Visibility
WCI - Wind Chill Index E13G22 Wind - East Wind 13 mph/Gusts of 22 mph